STARLINK-2555, 48291

Orbit data source: Space-Track

STARLINK-2555, 48291 is a payload satellite owned by SpaceX/Seattle (US) in LEO that was launched on Thu, 29 Apr 2021 UTC via an FALCON 9 launch vehicle from the Air Force Eastern Test Range (AFETR). Payload-class satellites include a variety of spacecraft equipped with specific instruments for various scientific and technological missions. These include communications satellites like Starlink; space stations such as the ISS; scientific satellites like the Hubble; Earth observation satellites from companies like Planet Labs, Umbra, and HawkEye 360; GPS; miniature CubeSats for education and research; and military/defense satellites.

Loading next visibility...
Identifier
48291, 2021-036R
Orbit
LEO
Country
Flag of USUS
Related business
Manufacturer
SpaceX/Seattle
Mission
Operational Commercial Communications
Bus & Motor
STARLINK, Unknown motor
Mass
260 kg wet, ~248 kg dry
Launch date (UTC)
2021-04-29 (5 years ago)
Launch vehicle
FALCON 9
Launch site
Air Force Eastern Test Range (AFETR)
Object type
Payload
Rocket body
Debris
Shape & HBR
Box + 1 Pan, 10.1 m
Radar Cross Section
13.562 m², Large (>1 m²)

Expand to show TLE details & history
Last TLE update: 10 hours ago

TLE from 10 hours ago
0 STARLINK-2555
1 48291U 21036R   26036.25809026  .00000547  00000-0  55605-4 0  9996
2 48291  53.0547 227.2087 0001801  95.2876 264.8318 15.06398117263425
Epoch: 2026-02-05T06:11Z
TLE epoch observation values (Epoch: 2026-02-05T06:11:38.998Z)
Latitude
-0.00006°
Longitude
-1.11674°
Altitude
548.209 km
Speed
7.589 km/s
True Right ascension
15h 08m 50s
True Declination
0° 00' 00"
Sunlit
Object was in daylight at epoch
Visualization orbit readout
Latitude
Unknown
Longitude
Unknown
Altitude
Unknown
Speed
Unknown
Apparent Right ascension
Unknown
Apparent Declination
Unknown
Sunlit
N/A
Visualization observer readout
Local Sidereal Time
18:28:01
Azimuth
Unknown
Elevation
Unknown
Doppler factor
Unknown
Orbital elements
Apogee altitude
548.735 km
Perigee altitude
546.241 km
Semi-major axis
6,925.625 km
Eccentricity
0.00018
Inclination
53.0547°
RAAN
227.2087°
Arg. of periapsis
95.2876°
True anomaly
264.81125°
Mean anomaly
264.8318°
Eccentric anomaly
264.82152°
Mean motion
3.76578 °/min
Orbital period
95.6 mins
BSTAR
0.000055605
Loading maneuver chart data...
Computing Atmospheric mass density...
Loading historical data...
Loading historical data...
Loading historical data...
Loading historical data...
Loading historical data...
Loading historical data...
Loading historical data...

Documentation

Showing up to 5 results
|